ECMWFFLT1_850_rhum_306.txt.gz
RH
69 67 66 65 65 64 63 63 62 62 62 61 61 61 61 60 60 60 60 60 59 59 59 59 59 60 60 61 62 64 69 76 82 85 86 91 96 99 100 99 99 100 98 96 99 99 97 97 97 95 91 85 77 75 77 76 75 76 75 73 73 72 72
63 60 58 57 56 55 55 55 56 56 58 60 61 62 62 63 64 64 63 63 62 62 62 62 62 62 61 61 61 60 61 64 70 74 77 81 86 91 94 96 96 97 95 96 98 96 93 91 90 89 93 90 75 63 63 64 63 64 64 63 63 62 61
40 37 35 34 35 35 36 37 37 38 39 41 43 45 47 50 54 57 61 64 66 68 69 68 67 67 66 65 63 62 61 59 60 64 67 70 72 78 83 85 87 87 84 86 90 90 89 89 88 88 91 88 76 64 58 57 57 57 57 56 56 56 56
42 39 37 36 34 34 35 34 33 31 28 26 25 24 25 26 29 34 40 47 54 62 68 73 75 76 76 74 72 69 67 65 62 60 61 61 61 64 67 68 72 74 76 81 86 88 90 92 94 93 86 79 75 70 62 58 58 57 57 57 56 56 56
51 47 43 39 36 33 32 31 29 26 23 20 17 16 15 14 14 15 16 20 25 33 42 51 59 68 74 78 79 79 77 75 72 69 65 62 60 59 59 59 61 63 66 71 76 81 86 87 86 83 77 73 75 72 64 59 59 58 57 57 56 57 57
56 51 45 39 33 29 26 24 23 22 20 17 15 14 12 11 11 10 10 11 12 15 19 23 29 39 51 60 67 74 78 80 82 82 79 76 72 68 64 62 61 59 59 60 61 65 70 73 73 71 70 70 71 70 65 61 60 59 59 59 57 57 57
62 57 52 46 39 32 27 25 23 22 20 18 15 14 13 11 11 10 10 11 11 12 13 14 16 21 28 36 43 51 59 67 73 78 81 85 87 85 82 78 74 70 68 64 62 62 63 65 66 65 66 67 68 68 67 65 63 62 61 61 60 60 59
58 54 49 45 40 35 30 27 25 22 19 17 15 13 12 11 11 11 11 11 12 12 13 13 15 17 19 23 27 31 37 44 52 60 67 75 84 89 93 95 94 91 88 84 81 78 77 78 78 76 74 74 75 75 73 71 70 68 67 66 66 65 64
47 43 40 36 33 30 27 25 23 21 19 17 16 14 14 13 12 13 13 13 13 14 14 15 16 17 18 20 21 24 26 29 35 43 51 59 69 80 89 95 99 100 99 98 97 96 95 95 94 92 90 88 87 86 84 84 84 81 78 77 75 73 71
39 36 33 30 28 26 24 22 21 19 18 17 17 16 15 14 14 14 14 14 14 15 16 17 18 19 20 21 22 23 25 27 30 35 40 48 59 74 85 90 94 98 100 100 100 100 100 101 100 99 99 98 97 96 95 96 96 93 90 88 87 83 79
38 35 31 28 26 24 22 20 19 18 18 17 18 19 18 18 18 17 16 16 16 17 18 19 20 21 22 23 23 24 25 27 29 31 34 40 49 62 75 85 92 97 99 100 100 100 99 100 100 100 100 100 100 99 99 99 99 99 97 96 94 90 87
37 33 31 28 26 24 22 21 21 20 21 21 21 22 24 26 25 21 19 19 20 21 22 22 22 23 24 25 27 28 29 29 31 32 33 36 40 46 57 71 84 95 99 100 100 100 101 100 100 100 100 101 100 100 101 100 100 100 100 99 99 96 92
33 31 30 28 26 25 25 24 23 22 22 23 23 24 26 29 27 23 22 22 22 24 25 26 26 26 27 29 31 33 35 35 37 37 37 37 38 40 45 53 65 80 93 99 100 100 99 99 100 100 99 99 99 99 99 99 100 99 99 100 100 99 98
31 31 31 31 30 29 28 27 26 25 25 24 25 26 28 28 26 24 24 23 24 26 28 28 29 30 31 33 35 37 39 40 42 42 42 41 40 40 42 44 49 58 71 85 96 101 100 100 100 100 100 100 101 101 100 100 100 99 99 101 99 99 100
32 32 33 33 32 31 30 29 28 27 27 27 26 27 29 29 27 26 26 25 26 28 30 31 33 34 35 36 37 39 41 44 46 47 47 48 47 45 45 46 47 48 52 62 77 88 92 94 95 95 92 90 92 93 92 93 94 92 94 96 96 98 100
34 34 34 33 33 32 32 32 32 31 30 29 29 30 31 31 31 30 29 29 30 31 32 33 34 35 35 36 37 39 42 46 49 52 52 53 53 51 51 50 49 49 50 52 58 63 69 78 89 96 95 91 92 94 93 94 96 95 96 97 96 99 100
35 35 35 35 35 36 35 35 35 35 34 33 34 35 35 35 35 35 33 33 33 34 34 34 35 35 36 36 37 39 43 46 50 53 54 55 55 55 55 53 51 51 51 52 54 55 56 62 72 81 86 88 90 94 97 100 101 98 99 100 100 101 101
37 37 39 40 41 41 40 39 39 38 38 37 37 38 38 38 38 37 36 35 34 35 36 35 35 37 38 39 39 41 43 47 51 52 54 56 58 58 56 54 53 53 53 53 54 53 53 53 53 54 57 60 63 68 79 92 100 101 101 100 99 100 100
39 40 42 43 44 45 44 44 43 42 41 40 40 41 40 41 41 39 38 38 38 38 39 39 38 39 41 42 43 43 44 46 51 54 57 61 63 61 57 56 57 58 56 54 52 52 51 50 49 49 48 48 49 50 55 65 76 87 97 101 101 100 100
44 44 45 46 47 48 48 48 47 46 45 43 42 43 44 46 47 46 45 45 44 43 43 43 43 43 43 44 45 46 46 48 53 59 63 66 67 64 61 63 65 64 62 60 56 54 53 51 49 49 47 46 47 47 47 52 59 66 79 93 101 101 100
51 50 49 49 49 49 50 51 51 50 49 47 46 46 48 50 51 52 52 51 50 48 47 47 47 48 47 47 47 49 50 53 59 65 68 69 69 67 68 71 72 69 68 66 63 59 58 55 53 51 50 48 49 49 52 65 77 82 84 91 99 101 100
58 56 53 51 50 50 52 53 54 54 52 51 50 49 51 54 55 57 58 57 56 53 52 51 51 50 50 50 50 52 54 58 63 68 69 70 70 71 73 75 76 75 72 69 68 66 64 61 58 56 53 52 53 56 60 72 87 97 98 98 99 101 101
64 63 61 57 54 53 53 56 58 57 55 54 53 53 55 57 59 61 62 63 61 58 56 55 53 51 50 50 50 52 54 58 62 65 68 70 72 74 76 78 79 80 78 74 73 73 71 67 65 63 59 59 64 73 81 88 94 98 100 100 101 100 99
70 70 68 64 59 56 56 58 60 59 58 57 56 56 57 59 61 64 65 65 64 62 60 58 55 53 52 50 51 53 56 59 62 65 68 72 75 76 78 80 83 83 83 81 79 78 76 73 71 69 68 72 80 88 95 99 99 100 100 99 99 97 93
78 78 75 70 63 59 58 59 60 61 60 59 59 58 59 61 63 65 67 67 66 65 64 62 59 56 55 54 56 59 62 64 65 68 71 74 77 78 79 82 83 85 87 87 83 80 79 77 77 77 75 78 84 87 87 88 89 93 98 97 95 95 91
86 86 82 74 68 65 63 62 62 62 62 62 61 61 61 63 65 67 69 71 70 69 67 65 63 61 59 61 63 65 67 69 69 71 73 75 78 81 82 85 87 88 93 94 89 86 86 85 86 86 85 87 93 94 94 93 92 94 100 100 98 99 97
91 89 85 79 75 72 68 66 65 64 64 65 65 64 64 66 68 70 72 74 73 72 70 67 64 62 61 62 63 65 67 70 71 73 76 78 81 83 84 87 89 91 94 95 91 88 87 88 90 91 89 92 98 101 101 100 99 100 102 102 101 100 100
93 89 86 85 83 79 74 70 68 67 68 69 70 70 71 72 73 75 76 77 76 75 74 70 66 64 63 63 64 66 68 70 70 72 74 77 81 82 83 84 84 85 87 88 88 89 89 90 92 92 91 93 98 101 101 101 102 103 102 100 100 100 100
96 91 89 88 87 84 80 75 72 72 72 72 74 76 77 78 81 82 82 82 82 82 81 78 74 71 70 71 72 72 71 70 70 71 72 74 76 78 80 81 81 81 82 84 88 94 95 94 94 93 93 97 101 102 101 100 102 103 102 100 101 101 100
97 93 93 92 89 85 83 80 76 75 75 75 77 79 81 83 85 86 87 87 87 87 87 83 79 75 74 77 79 76 72 71 72 72 72 73 74 76 77 79 79 80 81 82 86 91 92 92 94 94 94 98 101 102 100 100 101 102 101 99 100 103 102
93 91 93 94 91 87 84 81 77 76 77 79 81 83 85 87 88 88 89 89 90 92 90 84 80 78 78 82 84 79 73 73 74 74 72 73 74 75 76 77 78 80 82 84 86 87 88 90 92 93 93 96 100 102 102 100 100 101 100 96 97 102 103
92 91 91 92 92 89 86 82 80 81 82 83 85 86 88 89 89 89 91 92 93 93 88 82 81 82 83 85 85 79 75 74 75 74 73 73 73 73 73 75 77 79 83 86 87 87 88 89 91 91 93 94 95 97 100 101 101 101 101 99 99 101 103
94 93 91 90 89 89 88 86 84 86 88 88 89 90 91 91 91 91 93 94 94 92 86 81 81 82 82 81 79 77 76 76 74 72 72 72 72 71 71 72 75 78 81 84 86 88 88 89 90 91 92 92 91 92 97 101 101 100 100 100 101 101 102
91 90 89 88 87 87 88 88 89 91 93 93 94 93 92 93 92 91 92 93 92 89 84 81 81 81 79 77 75 75 74 73 71 70 70 70 71 70 69 70 72 75 78 81 84 87 89 90 91 92 92 93 93 92 94 98 101 102 100 99 100 100 101
86 84 83 84 84 83 85 89 93 94 94 95 95 94 94 95 94 92 91 91 89 87 83 81 80 80 78 77 75 74 73 72 70 69 69 70 71 70 69 68 69 72 76 80 83 86 88 91 93 93 93 93 94 94 93 95 99 102 101 101 100 100 100
84 80 79 79 78 80 86 92 96 96 95 95 95 95 96 96 95 94 93 92 89 87 83 80 79 79 78 78 76 74 74 73 71 69 69 69 69 69 67 66 66 68 73 77 80 83 86 89 91 92 94 96 97 97 97 96 96 98 99 100 101 101 100

ECMWFFLT1_850_rhum_312.txt.gz
RH
84 85 85 85 86 87 88 89 90 91 91 92 92 90 89 89 88 89 89 88 90 94 99 100 100 100 99 97 98 98 99 98 95 94 94 96 99 100 100 99 100 100 98 96 98 99 97 96 96 97 96 96 95 93 89 85 83 81 78 77 77 80 87
84 84 83 81 80 80 80 81 81 83 85 87 89 90 90 91 91 91 91 90 90 89 91 94 97 98 97 96 96 96 97 97 97 96 95 95 97 99 100 100 99 100 100 99 99 100 100 98 98 97 96 95 94 92 89 83 78 75 74 72 70 70 77
87 87 86 84 83 81 79 77 76 75 75 76 78 79 81 83 85 87 88 89 90 90 89 90 91 90 89 90 92 93 93 93 93 96 98 98 98 99 99 100 100 100 100 100 100 100 100 99 100 98 94 93 91 89 87 82 77 75 77 76 72 69 72
87 87 87 87 87 86 85 84 83 81 80 78 77 76 75 75 75 76 77 78 80 82 85 87 89 90 89 90 91 92 92 91 90 91 93 94 96 99 100 100 100 100 100 100 100 100 100 100 98 96 93 91 88 84 83 80 77 76 78 78 76 72 69
85 85 85 85 85 85 85 85 85 86 85 84 83 82 80 79 78 77 76 75 74 73 74 75 77 79 80 81 81 83 88 92 92 91 90 89 88 89 91 94 97 98 99 99 100 100 99 97 93 90 87 86 84 81 79 78 77 78 78 77 76 73 68
81 82 82 83 83 83 83 83 83 83 84 84 83 83 82 81 81 81 80 79 77 75 74 72 70 69 68 66 64 64 68 72 76 79 83 86 86 84 82 84 88 92 93 95 97 99 99 95 89 84 81 80 80 79 77 75 73 73 74 74 72 70 67
77 77 77 78 78 79 79 80 80 80 80 80 80 80 80 80 79 79 79 78 77 74 73 71 69 67 65 62 59 56 54 53 53 55 60 66 73 79 85 87 87 88 87 87 87 89 91 89 85 82 78 74 71 70 69 68 63 59 58 60 61 62 64
70 72 72 73 73 74 75 76 77 78 78 77 78 77 76 76 76 76 77 76 75 73 70 67 65 64 61 58 55 51 48 45 42 41 40 43 50 62 73 80 84 85 87 89 89 88 89 88 88 87 83 78 74 71 68 66 66 64 62 62 64 64 65
61 61 63 64 65 67 69 70 71 73 74 74 74 73 72 72 71 71 71 71 71 70 68 66 63 60 58 55 52 49 45 41 39 36 34 33 37 41 45 51 57 59 64 74 82 89 94 95 94 92 88 87 88 87 84 82 81 82 83 84 82 79 76
49 50 50 51 53 54 56 59 61 63 66 67 68 68 68 67 66 66 65 65 65 65 65 64 61 58 55 52 49 46 44 41 38 36 33 31 31 33 37 47 57 60 65 73 81 87 93 97 98 97 95 96 95 94 93 92 90 89 89 90 89 86 85
37 39 40 40 42 43 45 46 48 50 52 56 58 60 62 62 61 61 60 59 58 58 57 58 57 55 53 51 48 44 41 38 35 32 31 30 30 32 39 49 60 69 78 86 90 90 91 94 98 97 95 96 96 93 92 92 92 92 91 90 88 86 80
30 30 31 32 33 35 37 38 39 40 42 44 46 50 53 55 55 54 55 55 54 53 52 51 51 50 48 47 45 42 39 36 33 30 29 29 29 31 33 37 46 59 72 79 83 85 87 89 93 93 92 93 93 91 89 89 87 87 87 85 83 82 78
31 30 31 31 31 31 32 32 33 34 36 37 39 42 46 48 48 47 48 49 48 47 47 47 46 46 45 44 42 40 37 35 32 31 30 30 32 32 31 31 35 45 58 66 71 78 85 89 92 93 93 93 94 93 91 89 85 84 86 86 86 89 91
35 35 35 34 34 34 33 33 33 34 35 36 37 38 40 41 41 40 40 41 41 40 39 39 40 40 40 40 40 38 37 35 33 32 30 31 32 31 30 31 31 34 41 49 57 70 82 88 91 92 93 94 94 93 94 94 92 91 92 92 89 87 87
41 41 40 40 39 38 37 36 36 36 36 37 38 39 39 39 39 39 39 38 37 37 36 35 36 36 36 36 36 36 36 36 35 34 32 31 31 30 29 29 30 33 36 40 47 58 68 72 72 75 81 87 90 91 91 93 92 90 89 88 83 78 76
48 48 47 46 45 43 42 41 41 41 40 39 40 41 42 41 41 41 41 41 40 39 38 37 37 36 36 34 34 35 36 37 37 36 35 33 31 31 30 29 29 31 33 36 40 44 50 52 52 53 56 64 75 83 86 87 86 87 90 91 91 91 90
54 56 56 55 53 50 48 46 45 45 44 43 44 45 45 45 45 45 45 45 45 44 43 42 41 39 38 36 35 36 37 39 40 39 38 36 34 33 32 31 30 31 32 34 37 40 43 45 46 47 47 50 61 73 85 94 93 91 96 99 100 102 100
59 60 62 63 62 60 58 55 52 49 48 47 47 49 49 48 47 47 48 48 49 49 48 47 45 43 42 40 38 38 38 39 40 41 40 39 38 37 34 31 32 33 34 36 38 39 40 42 42 43 43 45 49 55 67 79 80 77 83 88 88 90 92
64 62 63 65 66 67 68 65 61 58 54 51 52 53 53 52 50 49 49 50 51 52 52 51 49 47 46 44 43 41 40 40 42 42 42 42 43 41 37 34 36 37 36 37 38 38 38 38 40 42 44 47 49 50 53 59 59 59 63 65 62 63 69
67 67 68 71 73 74 76 76 73 68 63 58 56 58 58 56 54 52 51 53 55 55 55 54 52 50 49 49 49 48 44 43 46 49 49 49 48 44 40 40 41 40 39 37 36 35 35 36 37 40 42 43 45 47 48 50 52 52 54 55 53 53 56
63 65 67 70 73 73 74 77 77 76 73 67 62 61 63 62 58 55 56 57 58 58 57 55 55 54 52 53 57 60 55 48 49 54 55 53 50 47 45 46 46 44 42 41 38 36 35 35 35 36 37 37 39 41 44 48 51 53 55 56 55 54 54
58 61 63 64 66 66 67 71 75 78 78 75 69 65 66 67 64 61 61 61 60 59 58 58 57 56 55 56 61 68 67 60 57 60 60 56 54 52 51 53 54 53 49 46 44 42 39 36 35 33 33 34 36 38 40 44 48 52 55 57 57 58 61
58 61 64 64 63 64 65 69 75 80 80 80 78 72 69 70 69 67 65 65 63 61 61 60 60 58 58 58 62 66 68 66 64 63 60 59 59 58 57 58 59 58 54 50 50 50 46 42 41 41 42 43 45 47 52 59 67 72 75 75 72 70 72
69 73 77 79 77 76 77 80 85 88 87 86 84 81 77 75 74 73 71 69 66 65 64 63 62 62 62 63 65 68 69 68 65 62 60 61 62 61 60 60 57 54 53 52 51 50 47 46 47 50 53 54 57 62 71 80 87 90 89 87 84 80 80
89 92 94 95 93 91 93 95 95 96 98 97 92 88 85 81 79 78 75 72 69 67 67 66 64 64 64 64 66 69 70 70 68 66 64 64 64 62 59 57 55 54 54 52 49 48 48 50 54 59 62 64 67 71 76 79 82 83 83 82 79 76 74
99 100 100 99 98 97 98 99 97 96 100 103 100 95 91 88 84 80 77 75 73 72 71 69 68 66 64 64 65 67 68 69 69 69 68 66 63 59 55 53 52 53 54 53 52 54 56 58 62 67 71 75 77 74 71 70 71 72 72 72 73 72 70
100 101 101 100 99 98 98 99 98 97 100 103 103 100 94 90 86 83 81 80 78 76 75 73 70 68 65 64 65 66 68 70 70 70 70 66 60 55 53 53 55 57 58 59 60 61 62 65 70 76 78 79 78 74 70 70 71 70 68 71 78 83 83
101 101 100 100 100 100 100 99 99 99 100 101 102 102 97 92 90 90 90 88 84 82 81 78 73 69 67 66 67 67 68 69 70 70 68 62 54 51 52 56 59 61 62 62 63 65 66 69 77 81 80 79 77 74 70 69 72 75 78 82 88 93 93
103 102 102 101 100 100 101 99 98 100 102 101 101 102 101 100 99 99 97 94 90 89 90 87 81 75 72 71 71 70 70 71 72 72 69 62 54 53 56 60 64 67 66 65 68 70 71 73 77 79 78 78 76 71 69 70 75 79 83 88 94 98 98
100 100 102 103 101 99 101 102 101 102 103 103 102 103 103 102 102 101 97 93 90 91 92 90 86 80 76 75 73 73 74 75 77 78 76 71 69 72 74 74 74 73 72 72 73 72 72 74 76 78 79 81 80 76 76 79 81 82 84 90 96 100 98
95 96 97 99 99 97 97 98 100 102 102 103 103 104 103 101 100 98 96 93 94 95 93 90 87 82 77 75 76 76 75 76 79 82 82 82 85 92 95 93 85 76 74 75 76 75 78 83 89 91 93 93 92 89 86 86 86 87 89 92 96 99 98
92 92 92 94 96 96 94 93 94 97 98 99 100 100 99 98 96 95 94 93 95 95 91 87 85 82 79 79 79 79 79 80 82 86 88 90 92 96 98 96 88 81 80 84 85 84 86 91 96 99 99 96 94 93 91 89 89 89 89 91 95 97 98
88 89 89 89 90 92 93 91 91 93 93 93 93 92 91 90 89 88 88 89 90 89 87 87 87 86 84 84 82 81 81 83 85 88 91 94 96 95 91 86 83 84 87 90 92 92 91 90 91 95 96 93 91 90 89 89 89 89 90 93 95 94 92
83 86 88 87 86 87 88 88 88 88 87 87 86 86 85 86 86 85 84 85 86 85 85 87 90 89 86 85 83 82 83 84 87 91 94 96 97 94 88 82 80 83 84 85 87 89 87 84 84 88 89 87 83 82 83 85 86 88 90 92 91 89 88
81 83 85 86 85 84 85 84 82 81 80 81 80 80 81 83 83 80 78 79 81 83 84 87 89 88 87 86 85 85 86 88 90 93 96 98 98 95 89 84 81 80 79 77 79 80 79 78 77 76 76 76 74 74 78 81 83 87 91 93 93 94 93
85 84 85 85 84 84 83 81 79 78 77 76 76 77 79 81 79 77 76 77 79 82 85 88 89 89 88 88 88 88 89 91 94 95 96 97 97 95 92 88 84 81 79 77 76 75 74 73 71 68 68 71 73 74 78 82 85 91 96 98 98 100 99

ECMWFFLT1_850_rhum_318.txt.gz
RH
63 63 63 64 65 65 66 68 69 70 71 72 74 75 76 78 79 82 82 80 79 79 81 86 92 98 100 100 100 100 100 100 101 100 99 99 100 99 98 98 99 100 100 98 98 100 100 99 99 100 100 100 100 100 100 100 100 100 99 98 98 98 99
59 60 60 61 62 62 64 65 66 68 69 70 72 74 76 77 79 81 83 84 84 82 80 80 83 89 94 97 100 101 100 100 100 100 100 100 100 101 100 98 98 98 99 99 98 98 99 99 99 100 100 100 99 99 99 100 100 99 97 95 95 95 95
51 51 51 51 53 55 56 59 61 63 64 66 67 69 72 74 77 79 81 82 84 85 85 83 82 83 84 88 92 96 99 100 100 100 100 101 101 100 100 99 99 98 98 99 98 96 98 99 99 100 100 100 99 99 98 99 99 98 96 95 93 91 90
39 38 38 39 40 41 43 46 49 52 56 58 61 63 65 68 71 74 77 78 80 82 83 84 85 85 84 85 86 88 91 95 98 99 100 101 101 101 100 100 100 100 100 100 98 96 96 98 99 100 100 99 98 98 97 97 96 96 96 94 90 87 84
30 29 29 29 30 31 32 33 35 38 42 46 49 52 55 58 62 66 69 73 75 77 79 80 82 83 84 85 85 85 86 88 90 92 95 97 98 99 100 99 100 100 100 100 100 98 97 98 99 98 99 99 99 97 96 95 95 97 97 93 88 84 80
26 26 26 27 27 27 28 28 28 29 31 33 36 39 43 46 50 54 58 62 67 71 73 74 76 77 79 80 81 82 83 83 85 86 88 90 92 94 95 95 96 98 99 100 100 100 99 99 99 98 97 97 98 98 96 93 91 92 96 97 92 88 84
25 26 26 27 27 27 28 28 28 28 28 28 29 30 32 35 38 41 45 49 54 59 64 67 69 71 72 74 76 77 78 78 79 80 82 83 85 87 88 89 90 91 93 94 95 97 98 98 97 97 95 93 93 95 96 95 90 85 85 89 91 90 88
26 26 27 27 28 28 29 29 30 30 30 29 29 29 29 29 30 32 34 37 41 45 51 56 61 64 66 69 70 72 73 74 75 75 75 76 78 80 82 83 84 85 85 86 87 88 90 90 90 91 92 91 88 86 87 88 88 82 75 71 72 74 73
25 25 26 26 27 27 29 30 31 32 32 32 31 31 30 30 29 29 29 30 31 34 38 42 47 52 56 60 64 67 70 71 72 72 72 72 72 74 76 77 79 80 80 80 80 80 80 82 82 81 82 84 83 81 78 76 76 77 74 68 66 67 63
24 24 24 24 24 25 26 28 31 33 34 35 34 34 33 33 32 32 31 30 30 30 31 33 36 39 42 46 51 57 62 66 68 69 69 69 69 70 72 73 73 74 75 76 76 77 77 78 78 77 75 74 75 78 80 80 79 80 80 77 74 74 72
22 22 23 23 23 24 24 26 28 31 34 37 38 38 37 36 36 35 34 33 32 31 31 31 32 33 34 36 38 42 47 53 57 61 63 65 65 66 68 69 69 70 70 71 72 72 74 76 78 79 77 73 71 73 79 86 88 87 86 84 80 79 79
21 22 23 24 25 26 27 27 28 30 34 37 40 42 42 41 41 39 38 36 35 35 34 33 34 33 33 33 34 35 37 39 42 45 49 52 55 58 61 63 66 66 66 67 68 68 69 72 76 79 78 75 70 67 71 78 85 89 90 90 88 87 88
22 23 25 26 27 29 29 29 31 33 35 38 41 45 47 47 47 45 44 42 39 39 39 38 37 36 36 36 35 36 36 36 36 36 37 39 41 43 48 53 57 61 62 63 64 67 69 72 76 77 76 72 67 63 62 63 69 77 84 90 94 95 95
24 24 26 27 29 29 29 30 31 33 36 39 41 45 50 53 53 52 50 49 46 45 44 43 42 41 39 38 38 39 39 39 39 38 37 36 35 35 37 39 44 49 53 57 59 62 65 68 73 78 80 77 73 68 64 59 57 59 65 76 86 91 94
25 26 27 28 29 30 30 31 32 33 35 38 41 44 49 54 58 59 58 56 54 52 51 49 48 46 44 43 41 41 42 43 43 43 41 40 38 37 36 35 36 37 41 46 50 53 56 58 62 69 76 79 79 78 77 76 74 66 58 57 60 63 70
29 30 30 30 31 31 30 31 33 34 35 38 41 43 46 52 60 65 67 66 64 61 58 56 55 53 50 48 45 44 45 47 48 47 46 44 42 41 40 38 36 35 36 38 41 44 48 50 53 56 61 71 82 88 86 85 86 82 76 69 62 53 49
34 34 34 34 34 34 33 33 34 36 37 39 41 44 47 50 56 65 72 72 70 70 67 64 61 60 57 54 50 48 48 50 52 52 50 48 46 45 43 41 39 37 37 37 39 40 42 43 43 43 44 53 66 74 73 72 74 77 78 82 82 73 57
36 36 37 37 37 38 38 36 36 38 39 40 42 46 49 52 56 63 69 70 68 69 70 70 68 65 63 60 56 53 52 53 55 56 55 53 51 49 47 45 43 41 40 39 39 39 40 40 40 39 38 40 45 50 54 60 65 65 64 69 76 77 68
38 38 39 40 40 41 42 41 41 42 43 43 45 48 50 54 61 68 71 70 67 65 66 69 71 70 68 66 63 59 57 56 57 58 58 56 55 53 50 48 48 47 45 43 41 40 40 41 41 41 40 38 38 40 44 49 53 54 55 58 62 70 78
40 39 40 41 42 43 45 45 45 46 47 47 48 51 53 57 64 72 77 80 81 79 74 70 70 72 71 70 68 66 62 60 60 60 61 62 63 58 53 52 53 53 51 48 45 43 42 42 42 41 40 38 38 39 40 44 49 51 52 54 56 61 76
41 41 41 43 45 45 47 48 49 51 52 53 54 57 62 67 71 80 88 94 97 96 88 78 74 75 75 73 72 70 67 63 62 62 65 70 73 67 59 57 56 53 52 51 48 46 45 44 43 42 41 40 39 39 40 43 49 52 54 54 54 55 60
43 44 44 45 47 49 50 52 55 58 60 62 65 69 73 77 81 88 98 103 102 100 94 87 83 82 80 78 75 72 69 66 65 65 66 69 72 74 79 79 70 57 52 51 49 48 47 45 44 43 43 43 42 41 42 44 47 52 54 54 54 55 55
45 47 48 48 50 52 54 56 60 64 67 71 75 78 80 82 85 91 100 104 103 101 97 92 89 87 85 83 79 75 72 69 68 68 67 67 67 74 86 90 80 65 57 54 53 52 49 46 45 44 44 45 45 44 44 45 46 47 50 51 53 54 57
50 51 52 52 53 54 57 59 62 65 69 75 81 84 85 83 83 88 97 103 103 101 98 93 89 88 86 84 82 80 77 74 71 69 68 69 68 69 75 78 76 69 65 61 59 57 53 49 48 48 47 47 48 47 47 46 45 45 48 52 56 61 68
52 54 56 57 57 58 60 64 66 66 69 75 83 88 89 88 86 86 91 98 102 102 99 94 89 87 86 84 82 81 79 75 73 72 70 70 69 69 71 73 72 71 70 67 63 60 57 54 52 53 55 53 51 48 46 45 45 47 51 57 65 74 83
54 57 58 59 60 62 64 67 69 68 70 76 83 88 91 93 92 90 91 94 99 101 101 99 95 92 91 89 86 85 82 79 77 75 73 72 71 71 71 72 74 76 76 74 69 64 61 58 57 59 60 57 53 48 46 48 51 52 57 68 81 89 93
58 60 61 61 63 65 67 69 69 68 71 79 84 87 90 92 92 93 95 97 99 101 101 101 100 97 95 93 90 88 86 85 83 80 77 75 74 74 75 76 78 80 80 77 73 68 64 61 61 61 59 56 55 52 50 54 60 61 63 75 92 100 98
61 63 64 65 66 68 69 69 68 68 72 80 85 87 89 89 89 91 94 97 100 102 101 100 99 96 93 91 88 85 83 84 85 84 81 79 77 76 77 78 79 80 79 76 75 73 70 67 65 62 57 55 57 57 56 60 66 71 74 81 93 98 95
63 64 66 69 72 75 75 72 70 71 75 81 86 90 92 92 92 92 92 94 99 102 102 100 97 95 92 89 86 84 83 85 87 87 83 80 79 79 80 81 82 82 79 77 78 79 77 74 71 65 59 58 60 61 63 67 75 81 86 91 97 98 92
64 65 69 73 75 79 81 78 76 77 80 82 85 89 94 96 97 96 95 95 98 101 101 99 96 93 91 89 88 88 88 88 88 87 83 81 81 82 83 83 83 82 80 79 81 82 81 80 77 70 64 64 67 67 70 77 84 89 92 94 96 94 89
65 65 68 74 77 81 83 83 82 84 86 85 85 87 91 95 96 97 99 100 102 102 100 97 94 91 89 89 90 90 89 87 86 84 82 80 79 79 79 80 81 81 83 84 85 86 86 86 86 83 77 74 73 73 74 78 84 89 91 91 90 90 86
67 66 66 70 75 80 83 84 85 88 89 89 88 87 89 93 95 96 99 102 103 103 100 96 93 90 88 89 90 88 84 82 81 80 79 79 78 76 76 78 80 82 87 89 89 90 90 90 93 95 92 86 82 79 77 78 83 88 91 93 95 97 95
67 67 67 67 69 73 78 81 84 87 88 89 90 89 89 93 94 95 97 100 102 100 97 95 93 92 89 88 86 82 79 78 77 77 78 79 80 79 79 81 83 86 90 91 91 91 92 92 94 98 99 95 92 89 86 84 85 87 90 94 97 98 97
65 67 70 72 70 69 71 75 80 84 87 88 90 90 92 96 98 96 95 96 95 92 88 87 87 85 83 81 79 77 77 77 77 77 79 79 80 82 84 86 87 89 90 90 91 93 94 93 94 98 101 101 99 95 91 89 87 88 91 94 96 96 95
67 68 71 74 75 73 71 72 75 81 86 89 90 91 95 99 101 97 94 91 89 85 82 81 80 79 78 77 77 78 79 80 79 80 81 81 81 84 88 89 89 89 90 91 93 94 94 94 95 99 102 104 103 99 94 90 89 91 94 95 95 94 90
72 72 72 72 72 75 76 75 75 79 85 88 90 92 97 101 100 96 91 88 86 83 82 81 81 81 81 81 82 83 84 85 84 84 84 84 85 87 90 91 90 90 91 93 94 95 95 97 98 99 101 103 102 100 95 90 89 93 96 95 94 92 87

ECMWFFLT1_850_rhum_324.txt.gz
RH
44 43 42 41 39 37 35 33 31 29 28 26 26 24 24 24 23 23 23 23 24 24 25 26 28 31 34 37 43 48 53 58 64 70 75 79 81 83 89 94 98 102 96 86 88 93 91 90 92 92 93 94 93 91 89 88 90 92 93 94 95 95 96
41 39 37 35 33 30 28 26 24 23 22 21 22 21 21 22 22 22 22 23 23 23 23 23 23 24 26 28 33 38 43 49 55 62 68 74 81 82 84 90 95 100 100 88 81 85 86 85 89 90 91 95 96 96 95 92 90 91 93 94 95 95 96
36 33 31 29 26 24 22 21 20 19 19 19 20 20 21 21 21 21 21 22 22 22 22 23 23 23 24 24 27 30 34 40 47 56 63 68 75 79 81 86 90 93 96 91 82 82 83 82 85 87 89 92 94 96 97 96 94 92 93 95 95 94 94
30 28 25 22 20 19 18 18 19 19 19 19 19 19 19 19 19 19 19 19 20 20 21 22 23 23 24 24 24 25 27 31 37 45 55 62 68 73 75 79 83 85 88 89 84 81 83 83 83 84 86 88 90 92 94 95 95 94 93 93 93 93 92
25 22 19 18 18 18 18 18 19 19 19 18 17 17 17 16 16 16 16 16 17 18 19 20 21 22 24 24 24 25 26 27 29 33 39 48 55 62 66 69 74 78 81 84 83 80 80 81 81 82 82 85 87 87 88 89 91 93 93 92 91 92 91
19 18 18 18 17 18 18 18 18 17 16 15 14 14 13 13 13 13 14 15 15 17 17 18 20 21 23 25 25 26 26 26 28 28 30 34 38 45 51 55 61 68 72 76 78 77 77 77 77 77 77 80 83 84 85 85 85 86 89 91 90 89 90
18 18 17 18 18 17 17 16 15 14 13 13 13 13 13 13 14 14 14 15 15 17 18 19 21 22 23 25 26 26 28 28 28 28 28 29 31 34 37 40 45 53 60 66 69 71 72 71 72 73 73 76 79 81 83 85 85 84 84 87 89 87 87
18 18 18 18 17 16 15 14 14 13 13 13 13 14 14 15 15 15 15 16 16 18 20 21 23 25 25 27 28 29 30 30 29 29 29 29 31 31 33 34 37 40 46 52 57 61 64 66 67 68 68 70 73 76 78 82 88 88 84 84 87 89 89
18 18 17 17 16 15 14 13 13 14 14 14 15 16 16 16 16 16 16 16 17 18 20 22 24 26 27 28 30 33 33 33 33 32 32 31 32 33 33 33 34 35 38 41 44 47 51 55 58 60 63 64 67 72 75 78 84 88 88 86 87 93 95
18 17 16 16 14 14 14 14 14 15 15 16 17 17 17 17 17 18 18 18 19 19 20 21 22 24 27 29 32 35 37 38 36 36 36 35 35 35 36 36 35 35 36 37 38 39 41 44 46 49 57 62 64 68 73 76 79 85 90 89 87 90 96
17 16 15 14 14 14 14 14 15 15 16 17 17 18 18 19 19 20 21 22 23 24 24 24 24 25 27 29 31 34 38 40 41 41 40 39 39 39 39 40 39 38 38 38 38 37 38 39 38 40 48 55 57 61 68 76 82 88 93 95 94 92 93
16 15 14 13 14 14 14 14 14 15 15 16 18 19 20 21 23 23 25 27 28 29 29 29 29 29 30 32 33 34 36 39 43 45 46 45 44 43 42 42 42 42 41 41 40 39 39 39 38 39 41 43 47 54 62 69 78 88 95 99 100 96 92
15 14 14 14 14 14 13 14 14 14 15 16 18 21 23 24 26 27 28 30 31 31 32 32 33 33 34 36 37 36 36 37 40 45 48 50 50 49 48 46 45 45 44 44 44 43 42 41 40 41 41 41 45 53 59 61 65 74 82 90 97 98 95
15 15 15 14 14 14 14 14 14 14 16 17 18 21 24 25 27 28 29 30 31 33 33 34 35 36 37 40 41 42 40 39 40 43 47 51 54 55 54 52 49 47 46 46 47 47 46 46 45 44 43 42 44 47 54 60 57 54 58 69 83 94 97
16 15 15 15 15 15 15 15 15 16 16 18 20 23 25 27 28 28 30 31 31 33 34 35 37 38 40 42 43 44 44 43 43 43 45 49 53 56 58 58 55 52 49 48 49 49 51 51 50 48 46 48 52 55 64 69 59 47 47 54 62 70 76
16 16 16 16 15 15 15 15 16 17 18 21 23 26 28 28 29 29 30 30 31 32 33 35 38 39 41 42 43 45 46 46 47 46 47 48 50 54 58 61 61 58 55 52 50 51 54 55 56 54 51 55 64 70 71 68 59 50 51 55 57 56 56
16 16 16 16 15 15 14 15 17 20 23 25 28 29 30 30 30 31 31 31 32 34 34 36 38 41 42 43 44 47 48 50 51 51 51 52 52 54 58 63 66 66 60 56 55 57 59 60 62 62 57 55 58 61 59 56 55 53 54 59 64 59 53
16 16 16 15 15 16 16 17 21 25 27 29 31 32 32 33 32 32 32 33 34 36 37 39 41 44 45 46 48 52 54 56 59 59 59 61 62 62 64 68 73 73 67 61 59 61 62 63 63 64 63 59 56 56 56 56 56 55 54 59 65 64 57
16 16 16 16 17 18 20 21 24 28 30 31 33 34 35 37 36 35 35 36 37 37 39 41 43 47 52 54 56 61 64 67 71 71 71 73 76 75 73 75 79 79 73 67 64 64 65 65 64 64 65 65 63 60 60 59 59 57 56 55 57 60 60
16 16 17 18 19 21 23 26 28 31 33 34 36 38 39 40 40 40 39 39 40 40 40 43 46 51 58 63 67 72 75 76 81 84 84 87 89 87 83 84 88 87 80 73 69 69 68 67 66 65 63 66 68 66 64 63 61 59 58 56 54 55 57
18 19 20 21 22 23 26 29 30 33 35 37 38 40 41 42 43 44 44 43 44 45 45 46 50 56 64 70 74 77 79 80 84 91 94 94 94 92 91 93 97 97 91 82 74 70 68 66 65 63 62 65 68 67 66 65 64 62 60 59 57 55 55
21 22 22 23 25 26 27 30 32 33 35 38 40 42 44 45 45 47 50 48 46 48 51 54 57 63 70 76 78 79 80 82 85 91 95 95 92 91 92 94 96 96 92 85 77 72 70 67 64 63 64 65 66 67 66 66 65 65 64 63 61 58 56
25 25 25 24 25 25 27 28 30 32 36 39 43 45 46 48 48 50 53 53 51 52 56 60 64 69 74 79 82 84 84 85 87 89 92 94 92 89 89 92 92 90 86 84 81 78 74 71 68 67 67 67 68 68 68 66 64 64 64 64 64 62 59
28 28 27 25 24 24 25 26 27 31 36 40 44 46 47 49 51 52 54 55 55 56 60 65 70 75 78 80 83 87 88 88 87 88 90 93 94 91 90 91 90 88 87 85 84 82 78 74 71 70 70 70 70 69 67 65 64 64 64 64 64 63 61
30 30 28 26 25 23 22 24 26 29 35 41 45 47 48 50 52 54 56 58 59 62 66 71 75 79 79 78 80 86 89 88 87 88 90 94 96 95 94 94 93 92 91 90 87 84 80 76 73 72 72 72 71 70 68 67 66 65 64 64 64 63 61
31 31 30 28 27 25 23 24 27 30 36 43 46 47 49 52 54 56 60 61 63 67 71 75 78 80 79 78 78 82 85 86 87 90 92 94 95 93 92 93 93 92 93 94 92 88 83 79 76 75 75 75 73 71 70 69 69 67 66 66 66 64 61
32 31 32 31 31 29 27 26 29 33 38 43 46 47 51 55 58 60 61 62 64 67 71 75 78 79 78 78 79 79 80 83 87 91 94 95 94 90 89 88 88 89 92 94 94 93 89 85 82 79 78 77 76 74 71 71 72 70 67 67 69 66 61
33 33 36 37 35 34 33 30 33 39 44 47 50 52 54 56 60 62 63 63 63 64 67 70 73 74 75 77 79 80 79 82 86 90 93 94 91 88 87 87 88 90 93 94 94 94 91 87 84 82 79 78 76 74 71 72 75 75 71 70 71 69 61
37 37 41 42 40 42 42 37 37 47 54 56 58 61 61 61 65 69 69 69 68 67 67 66 66 67 69 72 77 80 81 82 86 89 91 90 88 86 86 88 90 92 93 93 92 91 87 84 82 80 78 77 75 72 71 74 77 79 78 77 76 72 64
40 41 45 45 43 46 49 46 46 54 62 64 64 66 68 69 70 73 75 74 74 74 74 70 66 66 68 71 75 79 80 82 85 88 89 87 86 87 88 90 91 92 91 89 87 84 82 81 79 76 75 75 73 71 72 76 81 83 85 85 83 80 74
41 42 46 47 46 46 49 52 57 63 66 67 67 68 70 72 72 75 77 78 78 79 78 74 71 71 72 74 75 77 79 81 83 85 86 86 86 88 89 89 88 86 84 82 80 79 78 78 77 76 75 75 75 74 74 78 84 88 90 90 91 90 86
39 41 44 47 50 50 49 53 62 69 70 69 70 70 72 74 76 77 79 81 81 80 77 75 76 77 78 78 77 76 79 83 84 84 84 86 86 86 85 84 82 81 80 80 78 77 77 77 78 78 77 77 79 79 79 81 85 91 95 97 98 98 93
39 42 44 46 49 52 52 55 64 71 72 72 73 74 75 78 80 81 82 83 84 81 77 76 78 79 79 80 79 78 81 85 86 86 87 87 86 83 80 79 79 79 80 80 79 79 79 78 79 79 79 80 82 84 86 86 87 92 98 102 102 99 96
40 43 46 46 47 49 53 59 66 72 74 75 75 75 76 79 81 81 83 85 86 83 81 80 81 80 79 80 81 82 84 86 86 88 90 89 86 84 80 79 80 82 82 82 83 83 82 81 81 82 82 83 86 88 90 90 89 92 98 101 102 100 98
40 44 47 48 48 49 54 62 69 73 75 76 75 74 76 79 79 78 80 83 86 87 86 86 86 84 83 84 84 85 87 88 88 89 90 90 88 86 83 81 82 84 85 87 88 87 86 85 84 83 84 87 90 91 91 90 90 93 97 101 103 104 101
40 44 47 48 49 52 57 65 71 74 75 76 76 75 76 78 77 77 79 81 84 87 87 87 87 86 85 86 86 87 88 90 91 91 91 92 91 89 86 85 85 87 89 90 91 90 90 89 87 84 86 91 94 93 92 91 91 93 97 101 104 105 103

ECMWFFLT1_850_rhum_330.txt.gz
RH
45 44 43 42 40 38 35 32 29 26 22 19 17 16 16 16 15 15 15 14 14 13 13 12 11 11 11 10 10 10 10 10 11 11 11 12 13 14 17 19 22 27 24 19 20 18 15 15 13 12 12 13 12 12 13 13 14 17 19 22 26 31 36
47 46 44 42 39 36 32 28 23 20 17 16 16 16 16 15 15 14 13 13 12 12 11 11 11 10 10 10 10 10 10 10 10 11 11 11 12 13 14 16 17 20 20 17 17 17 15 15 15 15 15 15 14 13 13 13 13 15 16 19 22 26 30
47 45 42 39 35 30 25 22 19 17 16 16 16 15 15 14 14 13 13 12 12 11 11 11 11 10 10 10 10 10 10 11 11 11 11 11 12 13 14 14 16 18 19 19 18 18 18 17 18 17 17 18 18 16 16 16 16 16 17 18 21 25 28
46 43 40 35 29 24 20 18 17 16 16 16 15 15 14 14 13 13 12 12 11 11 11 11 10 11 11 10 10 11 10 11 11 12 12 12 13 14 14 15 16 17 20 21 20 20 21 21 21 20 20 21 21 19 20 20 20 21 20 19 20 23 26
46 42 37 30 24 20 18 17 16 16 16 16 15 14 14 13 13 13 12 12 12 12 11 11 11 11 11 11 11 11 12 12 12 13 14 14 14 15 16 17 18 19 21 23 24 24 24 25 24 23 22 23 23 23 23 23 23 25 25 22 22 23 25
45 39 32 26 22 19 17 16 16 16 15 15 14 14 14 13 13 13 13 12 12 12 12 12 12 12 12 12 12 12 13 13 14 15 16 16 17 18 19 19 20 22 23 25 26 26 27 28 28 27 25 25 27 27 25 26 28 31 32 30 27 26 27
42 35 29 24 21 19 17 17 16 16 15 15 14 14 14 14 14 14 13 13 13 13 13 13 13 13 13 13 13 13 14 15 16 17 18 19 20 20 21 22 23 24 25 26 28 28 29 31 31 31 28 26 29 30 32 43 50 43 36 32 30 30 30
40 33 28 24 21 18 17 17 16 16 16 15 15 15 15 15 15 14 14 14 14 13 14 14 13 13 13 14 14 14 14 15 17 18 19 20 22 23 24 25 26 27 27 29 31 34 37 38 37 37 35 34 41 44 46 58 60 45 34 35 35 32 30
36 30 25 21 19 18 17 17 17 17 16 16 16 16 16 15 15 15 15 14 15 14 14 14 14 14 14 14 14 14 14 15 17 19 20 21 23 25 26 28 29 29 30 32 34 39 46 47 43 41 42 44 51 54 50 49 49 43 39 41 39 34 35
28 23 21 19 18 17 17 17 17 17 17 17 17 16 16 16 15 15 15 15 15 15 14 14 14 14 14 14 14 15 15 16 17 20 22 24 26 27 28 29 30 31 32 34 34 38 45 47 40 38 45 51 56 61 58 51 51 51 48 45 45 42 42
22 20 19 18 17 17 18 19 18 18 18 17 17 17 16 16 16 16 15 15 15 15 15 15 15 15 15 15 16 16 16 17 19 22 25 27 29 31 32 32 33 33 34 36 37 38 43 44 38 39 53 63 65 69 70 63 58 56 53 55 60 57 47
21 19 18 18 18 19 20 20 19 19 18 17 17 17 16 16 16 16 16 17 16 16 16 16 16 17 17 16 17 17 18 19 20 22 24 26 29 31 33 35 37 38 38 39 42 42 42 43 42 45 58 69 66 64 66 65 60 58 60 66 72 69 56
20 19 18 18 19 20 20 20 19 18 18 17 17 17 17 17 18 18 19 18 18 18 18 18 18 18 17 18 18 18 19 20 20 22 22 23 26 28 31 36 38 41 43 44 48 47 43 43 47 47 53 64 66 64 66 66 62 62 68 73 76 75 68
20 19 19 20 20 21 20 20 19 19 18 18 18 19 20 20 21 21 21 20 20 19 19 19 19 18 18 18 18 18 19 20 20 21 22 23 26 28 32 37 39 41 45 48 52 53 48 46 52 53 51 56 66 71 73 73 73 76 82 83 80 77 73
19 19 20 21 21 20 20 20 19 19 19 20 21 22 22 23 23 23 22 21 21 20 20 19 19 19 18 18 18 19 20 22 22 23 25 26 29 32 35 37 38 40 45 51 56 59 57 55 58 59 57 60 72 81 84 87 91 94 96 95 90 88 85
20 20 20 21 20 20 20 19 20 21 22 23 24 24 24 24 23 23 22 21 20 19 20 19 18 19 19 18 20 21 23 25 27 28 30 32 34 37 38 38 38 39 43 51 58 61 62 62 62 65 69 77 87 93 96 99 100 99 101 100 99 100 98
20 20 20 20 20 20 20 20 22 24 24 25 25 24 25 24 23 22 21 20 20 19 19 19 19 20 21 21 22 24 26 29 32 34 37 38 39 40 39 37 39 42 43 49 57 62 66 69 69 72 80 91 99 100 99 101 100 99 101 100 100 101 101
20 20 20 20 20 20 22 23 25 26 26 26 26 24 24 23 22 22 21 20 20 19 19 20 20 22 24 24 25 27 28 31 36 38 40 41 41 39 38 38 42 45 46 47 51 57 65 72 74 74 77 85 93 98 100 101 100 100 101 100 101 102 100
20 20 19 20 21 22 25 26 26 27 27 26 25 24 23 22 21 21 20 20 20 19 20 20 21 23 24 25 26 27 28 32 38 41 41 43 44 41 39 43 48 51 52 53 55 59 66 71 74 76 77 79 84 91 95 98 100 100 101 101 101 102 103
19 19 20 21 24 25 27 27 27 27 26 25 24 23 22 21 22 21 21 21 21 21 22 23 24 25 25 26 26 27 29 34 41 45 45 47 49 47 46 53 58 60 62 66 69 70 73 75 75 75 77 79 82 87 90 93 97 99 101 103 101 101 105
19 20 22 24 26 27 28 28 28 27 25 24 23 23 22 23 23 24 24 25 25 26 27 27 28 29 28 28 28 28 30 35 41 48 51 52 54 55 58 65 68 70 75 81 83 84 85 86 82 77 76 78 80 84 86 87 90 91 93 99 102 103 104
21 23 25 26 28 29 28 28 27 25 24 24 24 25 26 26 27 28 29 29 29 29 30 30 31 31 31 31 30 31 33 38 43 49 52 55 59 64 69 75 79 83 88 92 95 98 99 96 91 84 81 80 80 82 83 83 84 87 91 94 96 99 100
24 25 27 28 29 29 28 27 26 26 27 28 29 30 31 31 31 32 32 32 31 31 32 32 32 32 31 31 32 33 37 42 47 50 52 55 61 67 73 80 84 89 93 95 99 103 102 97 93 90 88 86 84 84 84 83 83 85 88 90 88 87 89
26 27 29 30 29 29 28 28 28 29 30 31 31 32 32 32 32 33 33 33 32 33 34 34 33 33 33 33 34 37 42 47 49 51 54 57 60 66 74 81 85 89 92 96 100 101 98 96 96 96 94 90 87 87 85 83 83 83 82 84 83 79 79
28 29 30 30 30 30 29 30 30 30 30 31 31 30 30 30 31 32 33 33 33 34 35 35 36 36 36 37 39 43 46 48 50 53 56 58 62 67 73 79 85 90 96 100 100 96 95 98 100 100 99 93 87 85 85 84 84 84 82 82 81 79 77
30 30 31 31 31 30 30 30 30 29 29 29 29 29 30 31 31 31 32 33 33 35 37 39 40 41 41 42 45 48 50 51 54 58 60 61 64 68 71 76 82 89 98 103 101 98 99 101 101 101 101 97 89 85 85 84 85 86 86 85 85 83 80
31 31 32 32 31 31 30 30 30 29 30 30 29 29 30 30 30 30 31 32 33 35 37 39 39 39 40 43 47 50 53 57 60 62 63 64 67 68 70 74 82 90 97 100 100 102 103 102 100 100 101 99 93 87 85 85 86 87 87 87 87 86 81
33 33 33 32 32 32 31 31 30 30 30 30 30 30 30 30 31 32 33 35 36 38 40 40 39 38 38 41 44 47 51 56 59 61 62 66 69 71 72 75 81 87 90 91 93 97 100 100 99 100 101 98 94 88 86 86 87 85 84 84 86 83 79
33 33 33 33 33 33 33 32 31 30 30 30 31 31 32 33 35 37 39 40 42 45 45 44 44 45 46 46 48 52 55 57 59 61 63 66 69 73 75 78 81 83 84 87 92 95 97 98 98 99 99 96 91 88 87 86 84 81 79 79 79 78 74
34 34 35 35 34 34 33 32 31 31 31 31 32 32 33 34 36 40 42 44 47 51 52 50 50 52 54 54 56 59 61 62 64 65 67 69 72 74 76 77 81 83 84 87 92 95 96 97 97 96 95 93 91 90 89 85 79 76 75 75 75 75 73
36 36 36 36 35 34 32 30 29 29 30 32 33 34 35 36 38 42 46 49 53 57 57 55 55 56 57 58 61 64 66 68 70 70 70 72 75 78 78 77 78 82 86 89 93 96 97 97 97 96 95 93 93 91 87 82 78 76 76 77 77 76 75
38 37 37 36 34 32 29 28 28 29 30 33 36 37 38 39 42 47 52 56 60 61 58 57 60 61 62 64 67 69 71 73 74 74 73 73 75 78 81 79 77 79 86 91 94 95 96 96 96 96 95 93 92 88 83 81 80 79 80 80 79 78 77
37 36 35 33 31 29 27 26 28 31 34 38 40 41 42 44 48 54 58 62 64 63 60 61 65 67 68 69 71 73 74 75 75 75 74 73 73 75 79 81 79 79 83 88 91 93 95 96 95 94 92 90 87 84 82 83 84 84 85 85 83 81 80
33 31 30 28 27 26 25 27 32 36 39 43 44 44 47 52 56 59 61 64 65 64 64 66 70 73 73 75 76 77 78 77 76 76 75 74 72 73 77 80 80 80 80 83 86 89 92 94 94 93 91 89 86 85 85 86 87 88 89 90 89 86 84
28 26 25 24 24 24 27 32 38 42 44 45 46 48 55 61 64 63 63 64 65 66 68 73 78 81 82 82 83 84 84 83 81 79 78 76 74 74 76 79 80 79 79 81 84 86 88 90 92 93 92 91 89 89 88 88 89 91 91 91 92 91 89
24 23 22 22 23 27 32 38 42 45 46 46 48 53 61 67 67 66 67 68 68 70 74 79 83 85 86 86 86 87 88 87 86 83 81 79 78 77 78 80 81 80 79 80 82 85 86 88 90 92 94 94 92 91 90 90 91 92 93 92 93 93 93

ECMWFFLT1_850_rhum_336.txt.gz
RH
52 47 44 42 42 41 39 37 35 33 32 31 31 30 28 25 22 21 19 16 15 13 13 12 11 11 11 10 10 10 10 10 10 10 10 10 10 11 11 11 11 11 11 11 11 11 11 11 11 10 10 10 10 10 10 10 10 10 10 10 9 10 9
50 47 46 44 43 41 39 37 35 34 34 34 33 31 28 26 23 21 18 15 14 13 12 12 11 11 11 11 11 11 11 11 11 11 11 12 12 12 12 12 12 13 12 12 12 12 12 12 11 11 11 10 10 10 9 10 10 9 9 10 10 10 10
49 48 46 44 43 40 38 37 36 36 36 35 33 31 27 24 21 17 15 14 13 12 12 11 11 11 12 11 12 12 12 13 13 13 13 13 13 13 13 13 13 13 13 13 13 12 12 12 11 11 11 10 10 10 9 9 8 9 9 9 10 10 11
49 47 46 44 41 38 37 37 39 40 41 40 36 32 27 22 18 15 14 13 12 12 12 12 12 13 12 13 13 13 14 14 14 14 14 14 14 14 14 14 14 14 14 14 14 13 13 13 12 12 11 11 10 9 10 9 8 9 9 9 10 10 11
49 46 44 42 40 40 41 43 47 48 47 42 35 29 24 19 16 14 13 13 13 13 13 13 14 14 14 15 15 15 15 15 15 15 15 15 15 15 15 15 15 15 15 15 14 14 14 13 13 12 11 11 11 10 9 10 9 10 10 10 10 11 11
48 45 44 43 43 46 49 53 55 54 49 41 33 28 23 19 16 14 14 14 14 14 15 15 15 16 16 16 16 16 16 16 16 16 16 16 16 16 16 16 15 15 15 15 15 14 14 14 13 13 13 13 13 13 11 11 10 10 11 12 11 12 13
47 46 46 48 51 55 60 63 63 60 52 43 35 28 22 18 16 16 16 16 16 16 16 17 17 17 17 17 17 18 17 18 18 17 17 17 16 16 16 16 15 16 15 15 15 14 14 14 15 14 14 14 15 15 14 15 14 12 13 14 14 14 14
49 49 52 57 63 68 70 70 66 59 49 39 32 25 21 19 18 17 18 17 18 18 18 18 18 18 18 18 18 18 18 18 18 17 18 17 16 16 16 16 16 15 15 15 14 14 15 15 16 16 15 16 16 15 15 17 17 15 15 16 18 18 18
54 59 65 71 76 76 75 72 64 54 43 33 27 24 21 21 20 20 20 20 20 20 20 20 19 19 19 19 19 19 19 19 18 18 17 17 17 16 15 16 15 14 15 15 14 15 16 16 16 16 16 15 16 16 16 18 19 19 19 21 22 22 23
67 74 79 81 81 79 76 70 60 47 37 30 27 25 24 24 23 23 23 23 22 21 21 21 20 20 20 20 20 20 19 19 18 17 17 17 16 16 16 16 15 15 15 15 16 17 17 17 16 16 17 17 17 19 20 22 24 24 23 26 27 24 23
81 85 86 85 83 80 74 64 51 41 35 31 29 28 27 27 27 27 26 25 24 23 22 21 21 21 21 20 20 20 19 19 18 17 17 17 16 16 16 16 16 16 16 17 18 18 18 18 16 17 19 19 19 21 22 24 27 28 29 33 37 33 27
90 90 89 87 82 76 66 56 46 40 36 33 32 30 29 29 29 29 28 27 25 24 23 22 21 21 21 20 20 19 19 18 18 17 17 17 17 17 17 17 17 18 18 19 20 19 19 19 18 19 21 21 23 24 24 26 28 33 37 40 44 45 38
93 92 89 83 76 67 58 50 44 40 37 34 33 32 31 31 31 30 29 27 26 24 23 22 22 22 21 20 20 19 19 18 17 18 18 17 18 18 18 19 19 20 21 22 22 21 20 21 22 22 21 22 25 25 26 30 32 38 45 45 46 51 47
93 89 83 75 68 60 53 47 43 39 37 35 34 33 32 31 31 30 29 27 26 24 24 23 22 22 21 20 20 19 19 19 18 19 19 19 19 20 21 21 21 22 23 23 24 23 22 23 24 24 23 26 30 31 33 37 39 46 53 49 48 51 48
89 83 76 69 62 56 50 45 41 39 38 36 34 33 32 31 30 30 28 27 26 25 24 23 23 22 21 20 20 20 20 20 20 20 20 20 21 21 22 22 22 23 23 23 24 24 24 25 25 25 26 25 27 31 36 43 50 58 63 62 61 59 53
83 77 70 63 56 51 47 44 42 40 37 35 32 31 30 30 29 29 28 27 26 25 24 24 22 21 21 20 21 21 21 21 21 21 21 22 22 22 22 21 21 23 23 24 24 24 25 25 25 26 26 27 38 53 64 71 71 68 69 77 82 73 58
77 69 63 57 52 49 47 44 41 37 34 31 30 29 29 29 29 29 28 27 26 25 24 23 22 21 21 21 21 21 22 22 22 22 22 22 22 22 21 21 22 23 24 25 25 26 26 25 25 26 27 33 49 66 75 79 72 62 64 75 81 71 56
71 65 60 56 52 48 45 41 36 33 30 29 28 28 28 28 29 29 28 27 26 25 24 22 21 21 20 20 21 21 21 22 22 23 23 23 23 22 21 21 23 25 25 25 25 24 24 24 23 24 25 27 35 44 53 61 59 55 61 69 71 68 61
68 64 58 54 50 44 39 35 31 29 27 27 27 28 28 29 29 29 28 27 26 25 23 22 21 20 20 20 20 21 21 22 23 23 23 23 24 23 22 23 25 25 24 24 24 23 23 23 22 22 23 24 28 35 45 53 55 57 65 70 69 71 74
65 60 53 47 42 36 31 29 27 27 27 27 27 28 28 29 29 29 28 27 26 24 22 21 20 20 21 21 21 21 22 22 23 24 24 24 24 24 24 25 26 26 25 25 24 23 22 22 22 23 23 25 30 36 43 50 55 59 66 74 76 76 79
57 50 43 37 32 28 27 27 27 26 26 26 27 28 29 30 30 29 28 26 25 23 21 21 21 22 22 21 21 22 22 23 23 24 24 24 24 24 25 26 26 26 26 26 24 24 23 23 24 25 27 31 36 42 48 53 57 60 64 72 79 79 78
44 38 33 29 28 28 28 27 26 25 25 27 28 29 30 30 29 28 26 25 24 22 22 22 22 22 22 22 23 23 23 23 23 23 23 23 24 25 26 27 27 26 26 26 25 25 26 26 29 31 34 39 43 48 54 58 63 71 77 78 79 81 80
36 32 31 31 30 29 27 25 24 25 26 28 29 30 31 30 28 27 25 24 23 22 22 23 23 23 23 23 24 24 23 24 23 23 23 23 24 25 26 26 27 26 27 27 28 30 30 30 34 37 40 44 48 53 59 65 73 86 95 92 88 89 87
37 35 34 32 29 25 24 23 25 26 28 29 30 31 30 28 27 26 25 24 24 24 24 24 24 24 24 24 24 23 23 23 23 22 22 22 23 24 25 27 28 29 31 32 33 35 35 36 40 44 45 47 51 57 64 71 80 92 100 99 98 98 93
39 35 30 26 23 22 23 24 26 28 30 31 30 30 28 27 27 27 26 25 25 25 25 25 25 24 24 23 23 23 22 22 22 22 23 23 24 26 27 29 31 33 36 37 37 39 41 43 46 49 50 53 58 65 71 74 82 92 96 96 97 98 91
31 26 23 21 21 23 24 25 27 29 31 31 29 28 28 28 28 28 27 27 27 26 26 25 24 23 22 22 21 21 21 21 21 22 23 25 27 29 31 33 36 38 40 41 42 45 48 50 51 53 56 61 66 71 74 77 83 89 88 86 90 92 84
23 21 21 21 22 24 26 28 30 31 31 30 29 28 28 29 29 29 28 27 26 26 24 23 22 21 20 20 19 19 20 20 21 23 25 28 31 34 36 39 42 44 46 47 48 51 54 55 56 59 63 70 77 79 77 80 88 92 85 81 86 92 84
21 21 21 23 25 27 29 31 31 31 30 30 29 29 30 30 29 29 28 26 25 24 23 21 21 20 19 19 19 19 21 22 24 27 29 31 34 37 41 45 48 51 53 54 56 59 59 59 60 63 69 79 87 87 82 85 93 95 88 84 90 95 88
22 23 24 26 28 30 31 32 31 31 32 32 32 33 32 31 31 29 27 26 24 23 23 21 20 20 20 21 22 23 25 27 30 32 34 34 37 41 46 51 58 62 65 67 71 71 69 67 68 69 75 84 89 87 84 88 93 93 90 90 94 95 89
24 25 27 29 31 32 32 32 32 33 35 35 36 37 35 33 31 28 26 25 24 23 23 22 21 21 22 24 27 29 31 33 35 38 40 42 46 51 56 62 71 76 79 82 85 85 83 80 79 78 79 83 85 82 81 82 85 88 90 92 95 94 89
27 29 31 32 33 32 32 33 34 35 37 37 37 35 33 30 28 26 24 23 23 24 23 23 24 25 26 29 32 34 35 38 41 44 48 52 57 62 68 75 81 86 89 92 93 93 93 91 88 86 84 83 83 82 81 81 83 88 91 93 96 98 94
31 33 33 33 33 33 33 35 37 37 37 35 32 29 27 25 23 22 22 23 25 26 25 26 28 29 31 34 36 38 40 43 47 51 56 61 64 67 71 79 85 89 95 99 98 96 97 96 94 92 88 86 86 87 86 85 85 87 91 95 99 102 100
33 34 34 34 35 36 36 36 36 34 31 28 26 24 23 22 21 22 23 25 28 29 29 31 33 34 36 39 41 43 46 49 52 56 61 64 67 68 72 79 87 92 97 100 100 99 99 99 98 98 95 92 91 92 91 89 87 88 93 98 100 100 100
34 35 36 36 37 36 35 32 29 27 24 23 22 21 21 22 23 24 26 29 31 32 33 35 38 39 41 43 46 48 50 52 55 59 62 64 66 70 74 81 88 92 93 94 97 99 100 101 101 102 101 99 97 97 97 94 91 90 93 95 96 96 97
37 38 38 37 35 32 29 26 24 22 21 21 20 20 22 25 25 26 28 31 34 36 38 41 42 43 44 47 49 50 52 54 57 59 63 66 69 73 78 83 88 90 90 91 94 96 97 99 101 101 101 102 101 101 100 97 93 92 93 93 94 94 95
39 38 36 33 29 26 24 23 22 21 20 20 20 22 26 28 28 29 32 36 39 42 44 45 46 46 46 48 49 50 52 56 59 62 65 69 73 77 80 84 87 89 91 92 93 94 95 98 99 98 99 101 101 100 99 99 97 96 95 94 95 95 94